• Em Portugal
  • Lista de países
  • Para 7 dias
  • Temperatura da água
  • Mapas de satélite
  • Mapa do tempo
  • Widgets de tempo
  • user-avatar
    Iniciar Sessão

    Previsão horária em Budische

    Hoje, 19 Setembro, Quarta-feira

    Tempo Temperatura Precipitação Vento Pressão Humidade
    00:00 +13°C° 0 mm 2 m/s 747 mmHg 92%
    01:00 +13°C° 0 mm 2 m/s 747 mmHg 92%
    02:00 +13°C° 0 mm 2 m/s 747 mmHg 93%
    03:00 +13°C° 0 mm 2 m/s 747 mmHg 93%
    04:00 +13°C° 0 mm 2 m/s 747 mmHg 93%
    05:00 +13°C° 0 mm 2 m/s 747 mmHg 94%
    06:00 +13°C° 0 mm 3 m/s 747 mmHg 90%
    07:00 +14°C° 0 mm 3 m/s 747 mmHg 86%
    08:00 +16°C° 0 mm 3 m/s 747 mmHg 81%
    09:00 +18°C° 0 mm 4 m/s 747 mmHg 76%
    10:00 +20°C° 0 mm 4 m/s 747 mmHg 71%
    11:00 +21°C° 0 mm 4 m/s 747 mmHg 66%
    12:00 +22°C° 0 mm 4 m/s 747 mmHg 63%
    13:00 +23°C° 0 mm 5 m/s 747 mmHg 60%
    14:00 +25°C° 0 mm 5 m/s 746 mmHg 57%
    15:00 +23°C° 0 mm 4 m/s 746 mmHg 62%
    16:00 +23°C° 0 mm 4 m/s 746 mmHg 66%
    17:00 +22°C° 0 mm 3 m/s 746 mmHg 70%
    18:00 +20°C° 0 mm 3 m/s 746 mmHg 76%
    19:00 +19°C° 0 mm 3 m/s 746 mmHg 81%
    20:00 +18°C° 0 mm 3 m/s 746 mmHg 86%
    21:00 +17°C° 0 mm 3 m/s 746 mmHg 89%
    22:00 +17°C° 0 mm 3 m/s 746 mmHg 91%
    23:00 +16°C° 0 mm 3 m/s 746 mmHg 93%

    Amanhã, 20 Setembro, Quinta-feira

    Tempo Temperatura Precipitação Vento Pressão Humidade
    00:00 +16°C° 0 mm 3 m/s 746 mmHg 93%
    01:00 +16°C° 0 mm 3 m/s 746 mmHg 94%
    02:00 +16°C° 0 mm 3 m/s 746 mmHg 95%
    03:00 +15°C° 0 mm 2 m/s 746 mmHg 95%
    04:00 +15°C° 0 mm 2 m/s 746 mmHg 96%
    05:00 +15°C° 0 mm 2 m/s 746 mmHg 96%
    06:00 +15°C° 0 mm 2 m/s 747 mmHg 93%
    07:00 +16°C° 0 mm 2 m/s 747 mmHg 90%
    08:00 +17°C° 0 mm 2 m/s 747 mmHg 86%
    09:00 +19°C° 0 mm 2 m/s 747 mmHg 78%
    10:00 +20°C° 0 mm 3 m/s 747 mmHg 69%
    11:00 +22°C° 0 mm 3 m/s 748 mmHg 60%
    12:00 +24°C° 0 mm 3 m/s 747 mmHg 58%
    13:00 +24°C° 0 mm 3 m/s 747 mmHg 55%
    14:00 +25°C° 0 mm 3 m/s 747 mmHg 52%
    15:00 +25°C° 0 mm 2 m/s 747 mmHg 57%
    16:00 +24°C° 0 mm 2 m/s 747 mmHg 62%
    17:00 +23°C° 0 mm 1 m/s 747 mmHg 67%
    18:00 +22°C° 0 mm 1 m/s 747 mmHg 72%
    19:00 +20°C° 0 mm 1 m/s 747 mmHg 77%
    20:00 +19°C° 0 mm 1 m/s 747 mmHg 83%
    21:00 +19°C° 0 mm 1 m/s 747 mmHg 85%
    22:00 +17°C° 0 mm 2 m/s 747 mmHg 88%
    23:00 +17°C° 0 mm 2 m/s 747 mmHg 90%

    Depois de amanhã, 21 Setembro, Sexta-feira

    Tempo Temperatura Precipitação Vento Pressão Humidade
    00:00 +17°C° 0 mm 2 m/s 747 mmHg 91%
    01:00 +17°C° 0 mm 2 m/s 748 mmHg 92%
    02:00 +18°C° 0 mm 1 m/s 748 mmHg 93%
    03:00 +16°C° 0 mm 1 m/s 748 mmHg 93%
    04:00 +16°C° 0 mm 1 m/s 748 mmHg 93%
    05:00 +16°C° 0 mm 1 m/s 748 mmHg 94%
    06:00 +17°C° 0 mm 2 m/s 748 mmHg 90%
    07:00 +18°C° 0 mm 2 m/s 748 mmHg 87%
    08:00 +19°C° 0 mm 2 m/s 748 mmHg 84%
    09:00 +21°C° 0 mm 2 m/s 748 mmHg 78%
    10:00 +22°C° 0 mm 3 m/s 748 mmHg 71%
    11:00 +25°C° 0 mm 3 m/s 748 mmHg 65%
    12:00 +25°C° 0 mm 3 m/s 748 mmHg 62%
    13:00 +26°C° 0 mm 4 m/s 748 mmHg 58%
    14:00 +26°C° 0 mm 4 m/s 747 mmHg 55%
    15:00 +25°C° 0 mm 3 m/s 747 mmHg 58%
    16:00 +24°C° 0 mm 3 m/s 747 mmHg 62%
    17:00 +22°C° 0 mm 3 m/s 746 mmHg 65%
    18:00 +21°C° 0 mm 3 m/s 746 mmHg 68%
    19:00 +20°C° 0 mm 3 m/s 746 mmHg 70%
    20:00 +18°C° 0 mm 3 m/s 746 mmHg 72%
    21:00 +18°C° 0 mm 4 m/s 745 mmHg 71%
    22:00 +18°C° 0 mm 4 m/s 745 mmHg 70%
    23:00 +17°C° 0 mm 5 m/s 745 mmHg 70%

    22 Setembro, Sábado

    Tempo Temperatura Precipitação Vento Pressão Humidade
    00:00 +17°C° 0 mm 5 m/s 745 mmHg 70%
    01:00 +17°C° 0 mm 5 m/s 744 mmHg 70%
    02:00 +16°C° 0 mm 5 m/s 744 mmHg 71%
    03:00 +16°C° 0 mm 5 m/s 743 mmHg 71%
    04:00 +16°C° 0 mm 5 m/s 743 mmHg 71%
    05:00 +16°C° 0 mm 6 m/s 742 mmHg 70%
    06:00 +16°C° 0 mm 6 m/s 742 mmHg 70%
    07:00 +17°C° 0 mm 6 m/s 742 mmHg 69%
    08:00 +17°C° 0 mm 6 m/s 742 mmHg 68%
    09:00 +19°C° 0 mm 6 m/s 742 mmHg 67%
    10:00 +20°C° 0 mm 6 m/s 743 mmHg 65%
    11:00 +21°C° 0 mm 5 m/s 743 mmHg 63%
    12:00 +20°C° 0.1 mm 5 m/s 743 mmHg 67%
    13:00 +17°C° 0.1 mm 5 m/s 743 mmHg 71%
    14:00 +17°C° 0.1 mm 4 m/s 743 mmHg 75%
    15:00 +15°C° 0.1 mm 4 m/s 743 mmHg 77%
    16:00 +14°C° 0.1 mm 3 m/s 743 mmHg 79%
    17:00 +12°C° 0.1 mm 3 m/s 743 mmHg 80%
    18:00 +12°C° 0.2 mm 3 m/s 743 mmHg 82%
    19:00 +12°C° 0.2 mm 3 m/s 743 mmHg 83%
    20:00 +11°C° 0.2 mm 3 m/s 743 mmHg 85%
    21:00 +11°C° 0.5 mm 3 m/s 743 mmHg 87%
    22:00 +10°C° 0.5 mm 3 m/s 743 mmHg 89%
    23:00 +10°C° 0.5 mm 3 m/s 743 mmHg 90%

    23 Setembro, Domingo

    Tempo Temperatura Precipitação Vento Pressão Humidade
    00:00 +9°C° 0.6 mm 3 m/s 743 mmHg 91%
    01:00 +9°C° 0.6 mm 3 m/s 742 mmHg 92%
    02:00 +9°C° 0.6 mm 3 m/s 742 mmHg 93%
    03:00 +8°C° 1.5 mm 3 m/s 742 mmHg 93%
    04:00 +8°C° 1.5 mm 3 m/s 742 mmHg 94%
    05:00 +8°C° 1.5 mm 3 m/s 742 mmHg 94%
    06:00 +9°C° 0.3 mm 3 m/s 742 mmHg 93%
    07:00 +9°C° 0.3 mm 3 m/s 742 mmHg 92%
    08:00 +8°C° 0.3 mm 4 m/s 742 mmHg 90%
    09:00 +10°C° 0 mm 4 m/s 742 mmHg 85%
    10:00 +11°C° 0 mm 4 m/s 742 mmHg 79%
    11:00 +12°C° 0 mm 5 m/s 742 mmHg 74%
    12:00 +13°C° 0.1 mm 5 m/s 742 mmHg 70%
    13:00 +14°C° 0.1 mm 5 m/s 742 mmHg 65%
    14:00 +14°C° 0.1 mm 6 m/s 742 mmHg 61%
    15:00 +14°C° 0.1 mm 5 m/s 742 mmHg 64%
    16:00 +13°C° 0.1 mm 4 m/s 742 mmHg 68%
    17:00 +12°C° 0.1 mm 4 m/s 742 mmHg 71%
    18:00 +11°C° 0 mm 3 m/s 742 mmHg 76%
    19:00 +10°C° 0 mm 3 m/s 743 mmHg 80%
    20:00 +9°C° 0 mm 3 m/s 743 mmHg 85%
    21:00 +8°C° 0 mm 3 m/s 743 mmHg 87%
    22:00 +8°C° 0 mm 3 m/s 743 mmHg 88%
    23:00 +7°C° 0 mm 2 m/s 744 mmHg 90%

    24 Setembro, Segunda-feira

    Tempo Temperatura Precipitação Vento Pressão Humidade
    00:00 +7°C° 0 mm 2 m/s 744 mmHg 91%
    01:00 +7°C° 0 mm 2 m/s 744 mmHg 91%
    02:00 +6°C° 0 mm 2 m/s 744 mmHg 92%
    03:00 +6°C° 0 mm 2 m/s 744 mmHg 90%
    04:00 +6°C° 0 mm 2 m/s 744 mmHg 89%
    05:00 +6°C° 0 mm 2 m/s 744 mmHg 87%
    06:00 +7°C° 0 mm 3 m/s 744 mmHg 83%
    07:00 +8°C° 0 mm 3 m/s 744 mmHg 78%
    08:00 +9°C° 0 mm 3 m/s 744 mmHg 73%
    09:00 +10°C° 0 mm 4 m/s 743 mmHg 71%
    10:00 +10°C° 0 mm 5 m/s 743 mmHg 68%
    11:00 +11°C° 0 mm 6 m/s 742 mmHg 65%
    12:00 +11°C° 0 mm 7 m/s 742 mmHg 65%
    13:00 +11°C° 0 mm 7 m/s 741 mmHg 64%
    14:00 +11°C° 0 mm 8 m/s 740 mmHg 63%
    15:00 +11°C° 0.4 mm 8 m/s 740 mmHg 68%
    16:00 +11°C° 0.4 mm 7 m/s 739 mmHg 73%
    17:00 +11°C° 0.4 mm 6 m/s 739 mmHg 77%
    18:00 +11°C° 0.1 mm 6 m/s 739 mmHg 77%
    19:00 +11°C° 0.1 mm 6 m/s 738 mmHg 76%
    20:00 +11°C° 0.1 mm 6 m/s 738 mmHg 75%
    21:00 +13°C° 0.1 mm 6 m/s 737 mmHg 75%
    22:00 +13°C° 0.1 mm 6 m/s 737 mmHg 76%
    23:00 +13°C° 0.1 mm 6 m/s 737 mmHg 76%
    Mostrar mais